Tiempo cada hora Aberaeron

Hoy, 26 Octubre, Lunes

Tiempo Temperatura Precipitaciones Viento Presión Humedad
00:00 +6°C° 0.3 mm 8 mps 736 mmHg 91%
01:00 +6°C° 0.3 mm 7 mps 736 mmHg 91%
02:00 +6°C° 0.3 mm 7 mps 735 mmHg 91%
03:00 +6°C° 0.3 mm 7 mps 735 mmHg 92%
04:00 +7°C° 0.5 mm 6 mps 735 mmHg 93%
05:00 +7°C° 0.5 mm 6 mps 735 mmHg 94%
06:00 +7°C° 0.5 mm 6 mps 735 mmHg 95%
07:00 +8°C° 0.4 mm 7 mps 735 mmHg 93%
08:00 +7°C° 0.4 mm 8 mps 735 mmHg 90%
09:00 +8°C° 0.4 mm 9 mps 736 mmHg 88%
10:00 +8°C° 0.3 mm 9 mps 736 mmHg 85%
11:00 +8°C° 0.3 mm 10 mps 737 mmHg 82%
12:00 +9°C° 0.3 mm 10 mps 738 mmHg 80%
13:00 +8°C° 0.4 mm 9 mps 738 mmHg 81%
14:00 +8°C° 0.4 mm 9 mps 738 mmHg 82%
15:00 +9°C° 0.4 mm 8 mps 739 mmHg 83%
16:00 +7°C° 0.4 mm 8 mps 739 mmHg 85%
17:00 +7°C° 0.4 mm 8 mps 739 mmHg 86%
18:00 +6°C° 0.4 mm 8 mps 740 mmHg 88%
19:00 +6°C° 0.1 mm 7 mps 740 mmHg 89%
20:00 +6°C° 0.1 mm 7 mps 740 mmHg 89%
21:00 +6°C° 0.1 mm 7 mps 740 mmHg 90%
22:00 +5°C° 0 mm 7 mps 740 mmHg 90%
23:00 +5°C° 0 mm 6 mps 740 mmHg 90%

Mañana, 27 Octubre, Martes

Tiempo Temperatura Precipitaciones Viento Presión Humedad
00:00 +5°C° 0 mm 6 mps 741 mmHg 91%
01:00 +5°C° 0 mm 6 mps 740 mmHg 90%
02:00 +5°C° 0 mm 5 mps 740 mmHg 90%
03:00 +5°C° 0 mm 5 mps 740 mmHg 89%
04:00 +6°C° 0 mm 5 mps 739 mmHg 90%
05:00 +6°C° 0 mm 5 mps 739 mmHg 91%
06:00 +6°C° 0 mm 5 mps 738 mmHg 91%
07:00 +7°C° 0.3 mm 6 mps 737 mmHg 93%
08:00 +8°C° 0.3 mm 7 mps 736 mmHg 94%
09:00 +7°C° 0.3 mm 8 mps 735 mmHg 96%
10:00 +9°C° 1.1 mm 8 mps 734 mmHg 95%
11:00 +8°C° 1.1 mm 9 mps 734 mmHg 94%
12:00 +10°C° 1.1 mm 9 mps 734 mmHg 94%
13:00 +8°C° 0.3 mm 9 mps 734 mmHg 89%
14:00 +8°C° 0.3 mm 9 mps 734 mmHg 84%
15:00 +7°C° 0.3 mm 9 mps 734 mmHg 79%
16:00 +6°C° 0.1 mm 9 mps 735 mmHg 81%
17:00 +6°C° 0.1 mm 8 mps 736 mmHg 83%
18:00 +5°C° 0.1 mm 8 mps 736 mmHg 84%
19:00 +5°C° 0.2 mm 8 mps 736 mmHg 86%
20:00 +5°C° 0.2 mm 8 mps 736 mmHg 87%
21:00 +5°C° 0.2 mm 7 mps 736 mmHg 89%
22:00 +5°C° 0.1 mm 8 mps 735 mmHg 89%
23:00 +5°C° 0.1 mm 8 mps 735 mmHg 88%

Pasado mañana, 28 Octubre, Miércoles

Tiempo Temperatura Precipitaciones Viento Presión Humedad
00:00 +5°C° 0.1 mm 9 mps 734 mmHg 88%
01:00 +6°C° 0.2 mm 9 mps 734 mmHg 88%
02:00 +6°C° 0.2 mm 9 mps 733 mmHg 88%
03:00 +7°C° 0.2 mm 9 mps 733 mmHg 88%
04:00 +7°C° 0.5 mm 10 mps 732 mmHg 88%
05:00 +7°C° 0.5 mm 10 mps 732 mmHg 89%
06:00 +7°C° 0.5 mm 10 mps 732 mmHg 90%
07:00 +7°C° 0.5 mm 11 mps 732 mmHg 88%
08:00 +7°C° 0.5 mm 12 mps 732 mmHg 87%
09:00 +7°C° 0.5 mm 13 mps 732 mmHg 85%
10:00 +7°C° 0.6 mm 13 mps 732 mmHg 85%
11:00 +8°C° 0.6 mm 14 mps 732 mmHg 84%
12:00 +8°C° 0.6 mm 14 mps 731 mmHg 84%
13:00 +8°C° 0.5 mm 15 mps 731 mmHg 83%
14:00 +8°C° 0.5 mm 15 mps 731 mmHg 82%
15:00 +7°C° 0.5 mm 16 mps 731 mmHg 82%
16:00 +7°C° 0.3 mm 16 mps 731 mmHg 81%
17:00 +7°C° 0.3 mm 16 mps 732 mmHg 81%
18:00 +7°C° 0.3 mm 17 mps 732 mmHg 81%
19:00 +7°C° 0.2 mm 16 mps 734 mmHg 80%
20:00 +7°C° 0.2 mm 16 mps 735 mmHg 79%
21:00 +8°C° 0.2 mm 15 mps 736 mmHg 78%
22:00 +8°C° 0.2 mm 14 mps 737 mmHg 79%
23:00 +8°C° 0.2 mm 13 mps 738 mmHg 80%

29 Octubre, Jueves

Tiempo Temperatura Precipitaciones Viento Presión Humedad
00:00 +8°C° 0.2 mm 12 mps 739 mmHg 81%
01:00 +7°C° 0.2 mm 11 mps 740 mmHg 82%
02:00 +7°C° 0.2 mm 10 mps 740 mmHg 83%
03:00 +7°C° 0.2 mm 8 mps 741 mmHg 84%
04:00 +7°C° 1.8 mm 9 mps 740 mmHg 88%
05:00 +8°C° 1.8 mm 9 mps 739 mmHg 92%
06:00 +8°C° 1.8 mm 10 mps 739 mmHg 97%
07:00 +9°C° 1.3 mm 10 mps 738 mmHg 96%
08:00 +11°C° 1.3 mm 11 mps 738 mmHg 96%
09:00 +12°C° 1.3 mm 11 mps 737 mmHg 96%
10:00 +12°C° 0.8 mm 11 mps 738 mmHg 96%
11:00 +13°C° 0.8 mm 11 mps 738 mmHg 96%
12:00 +13°C° 0.8 mm 11 mps 738 mmHg 95%
13:00 +12°C° 1.4 mm 11 mps 738 mmHg 93%
14:00 +12°C° 1.4 mm 11 mps 739 mmHg 91%
15:00 +11°C° 1.4 mm 11 mps 739 mmHg 89%
16:00 +11°C° 0.1 mm 10 mps 739 mmHg 89%
17:00 +10°C° 0.1 mm 9 mps 740 mmHg 88%
18:00 +10°C° 0.1 mm 9 mps 741 mmHg 88%
19:00 +10°C° 0.3 mm 9 mps 741 mmHg 89%
20:00 +9°C° 0.3 mm 8 mps 742 mmHg 90%
21:00 +9°C° 0.3 mm 8 mps 743 mmHg 92%
22:00 +9°C° 1.8 mm 8 mps 743 mmHg 93%
23:00 +8°C° 1.8 mm 7 mps 743 mmHg 94%

30 Octubre, Viernes

Tiempo Temperatura Precipitaciones Viento Presión Humedad
00:00 +6°C° 1.8 mm 7 mps 743 mmHg 95%
01:00 +7°C° 1.2 mm 6 mps 743 mmHg 95%
02:00 +7°C° 1.2 mm 6 mps 744 mmHg 95%
03:00 +7°C° 1.2 mm 5 mps 744 mmHg 94%
04:00 +7°C° 0.5 mm 4 mps 744 mmHg 93%
05:00 +8°C° 0.5 mm 3 mps 744 mmHg 92%
06:00 +8°C° 0.5 mm 3 mps 745 mmHg 90%
07:00 +8°C° 0 mm 2 mps 745 mmHg 89%
08:00 +8°C° 0 mm 2 mps 745 mmHg 88%
09:00 +8°C° 0 mm 2 mps 746 mmHg 87%
10:00 +8°C° 0.1 mm 2 mps 746 mmHg 86%
11:00 +9°C° 0.1 mm 1 mps 746 mmHg 86%
12:00 +10°C° 0.1 mm 1 mps 746 mmHg 85%
13:00 +8°C° 0.6 mm 2 mps 745 mmHg 87%
14:00 +8°C° 0.6 mm 3 mps 745 mmHg 90%
15:00 +7°C° 0.6 mm 3 mps 744 mmHg 92%
16:00 +6°C° 2.3 mm 4 mps 744 mmHg 93%
17:00 +5°C° 2.3 mm 5 mps 743 mmHg 94%
18:00 +4°C° 2.3 mm 6 mps 743 mmHg 95%
19:00 +4°C° 2.2 mm 6 mps 742 mmHg 95%
20:00 +3°C° 2.2 mm 6 mps 742 mmHg 95%
21:00 +3°C° 2.2 mm 6 mps 741 mmHg 95%
22:00 +3°C° 0.4 mm 6 mps 742 mmHg 95%
23:00 +3°C° 0.4 mm 6 mps 742 mmHg 94%

31 Octubre, Sábado

Tiempo Temperatura Precipitaciones Viento Presión Humedad
00:00 +3°C° 0.4 mm 5 mps 742 mmHg 94%
01:00 +3°C° 0.1 mm 5 mps 742 mmHg 93%
02:00 +3°C° 0.1 mm 5 mps 743 mmHg 92%
03:00 +4°C° 0.1 mm 4 mps 744 mmHg 90%
04:00 +4°C° 0.1 mm 4 mps 744 mmHg 90%
05:00 +3°C° 0.1 mm 5 mps 745 mmHg 89%
06:00 +2°C° 0.1 mm 5 mps 746 mmHg 89%
Mostrar más

Necesitamos Su Consentimiento

Meteoprog y nuestros Proveedores de Servicios pueden almacenar y acceder a sus datos personales como cookies, identificadores de dispositivo u otras tecnologías similares de su dispositivo y procesar dichos datos para personalizar contenido y anuncios, además de ofrecer funciones de redes sociales y analizar el tráfico.

  • Almacenar y/o acceder a información en su dispositivo

    Se puede almacenar o acceder a cookies, identificadores de dispositivo u otra información de su dispositivo para los fines anteriormente indicados.

  • Anuncios y contenido personalizados, medición de anuncios y contenido, percepciones del público, y desarrollo de productos

    Los anuncios y el contenido pueden personalizarse en base a su perfil. Se pueden añadir más datos para personalizar mejor los anuncios y contenidos. Se puede medir el rendimiento de los anuncios y contenidos. Se puede obtener la percepción sobre el público que ha visto los anuncios y contenidos. Dichos datos pueden usarse para desarrollar o mejorar la experiencia del usuario, sistemas y software.

Al hacer clic en ‘Estoy De Acuerdo’ usted permitirá el uso de las cookies, identificadores de dispositivo, balizas web u otras tecnologías similares indicadas. Su configuración puede cambiarse desde el navegador de su dispositivo.

Para ciertos fines, los intereses legítimos pueden ser considerados por encima del consentimiento. Puede leer más sobre ello en nuestra Política de Privacidad y Cookies.